Weather in Oskolkovo

Russia / Nenets Autonomous Okrug     67°57′19″N   53°44′23″E
temp.,
°C
wind,
m/s
gust,
m/s
humid.,
%
clouds,
%
prec.,
mm/h
press.,
hPa
HPBL,
m
27 february, sat
sat2700:00−19s7149296 0.0 1011337
03:00−20s6129494 0.0 1012297
06:00−21s61294100 0.0 1011286
09:00−21s71393100 0.0 1012341
12:00−20s71291100 0.0 1011395
15:00−19s61191100 0.0 1011397
18:00−19s61294100 0.0 1010381
21:00−17ssw61096100 0.3 1009400
28 february, sun
sun2800:00−17ssw5996100 0.6 1008350
03:00−16ssw5896100 1.1 1009323
06:00−16ssw489696 0.2 1008223
09:00−18ssw479798 0.3 1008191
12:00−17ssw479599 0.0 1009255
15:00−17ssw479593 0.1 1009161
18:00−18ssw459883 0.0 100981
21:00−18ssw479885 0.0 100995
1 march, mon
mon100:00−15ssw699697 0.1 1007156
03:00−11ssw7119598 0.1 1006275
06:00−12ssw81394100 0.1 1002334
09:00−11ssw101694100 0.6 999437
12:00−9ssw111694100 0.9 995543
15:00−8ssw101694100 2.0 992596
18:00−6ssw91595100 1.8 989563
21:00−5ssw81395100 3.6 987428
2 march, tue
tue200:00−2sw3697100 0.3 987150
03:00−1sw4698100 0.8 987217
06:00−4wsw469798 0.4 988122
09:00−7ssw469695 0.6 988127
12:00−6ssw4795100 0.1 988276
15:00−6ssw3596100 0.1 98896
18:00−5s4795100 0.1 988301
21:00−7sse449599 0.1 98888
3 march, wed
wed300:00−7sse3396100 0.1 98970
03:00−7sse239698 0.5 98937
06:00−9ssw129796 0.3 99021
09:00−8nw349693 0.6 991123
12:00−9nw469589 0.3 992307
15:00−9wnw379594 0.7 992313
18:00−11w359697 0.2 992127
21:00−11w369698 0.4 993154